#datetime,building,power
2022-12-27T00:00:00,hdy,44.03
2022-12-27T00:01:00,hdy,43.96
2022-12-27T00:02:00,hdy,43.40
2022-12-27T00:03:00,hdy,43.27
2022-12-27T00:04:00,hdy,42.47
2022-12-27T00:05:00,hdy,42.52
2022-12-27T00:06:00,hdy,42.39
2022-12-27T00:07:00,hdy,44.25
2022-12-27T00:08:00,hdy,44.96
2022-12-27T00:09:00,hdy,44.57
2022-12-27T00:10:00,hdy,43.60
2022-12-27T00:11:00,hdy,43.99
2022-12-27T00:12:00,hdy,44.43
2022-12-27T00:13:00,hdy,45.66
2022-12-27T00:14:00,hdy,43.58
2022-12-27T00:15:00,hdy,45.04
2022-12-27T00:16:00,hdy,43.63
2022-12-27T00:17:00,hdy,43.68
2022-12-27T00:18:00,hdy,42.62
2022-12-27T00:19:00,hdy,42.42
2022-12-27T00:20:00,hdy,43.61
2022-12-27T00:21:00,hdy,45.06
2022-12-27T00:22:00,hdy,45.33
2022-12-27T00:23:00,hdy,43.04
2022-12-27T00:24:00,hdy,42.58
2022-12-27T00:25:00,hdy,43.03
2022-12-27T00:26:00,hdy,43.81
2022-12-27T00:27:00,hdy,44.52
2022-12-27T00:28:00,hdy,44.53
2022-12-27T00:29:00,hdy,45.56
2022-12-27T00:30:00,hdy,45.73
2022-12-27T00:31:00,hdy,44.15
2022-12-27T00:32:00,hdy,44.08
2022-12-27T00:33:00,hdy,45.04
2022-12-27T00:34:00,hdy,44.44
2022-12-27T00:35:00,hdy,44.53
2022-12-27T00:36:00,hdy,43.36
2022-12-27T00:37:00,hdy,44.30
2022-12-27T00:38:00,hdy,43.04
2022-12-27T00:39:00,hdy,43.77
2022-12-27T00:40:00,hdy,45.16
2022-12-27T00:41:00,hdy,45.22
2022-12-27T00:42:00,hdy,45.21
2022-12-27T00:43:00,hdy,43.38
2022-12-27T00:44:00,hdy,42.82
2022-12-27T00:45:00,hdy,44.06
2022-12-27T00:46:00,hdy,43.69
2022-12-27T00:47:00,hdy,44.25
2022-12-27T00:48:00,hdy,45.01
2022-12-27T00:49:00,hdy,43.10
2022-12-27T00:50:00,hdy,43.10
2022-12-27T00:51:00,hdy,43.13
2022-12-27T00:52:00,hdy,43.82
2022-12-27T00:53:00,hdy,43.51
2022-12-27T00:54:00,hdy,43.08
2022-12-27T00:55:00,hdy,43.28
2022-12-27T00:56:00,hdy,42.54
2022-12-27T00:57:00,hdy,44.30
2022-12-27T00:58:00,hdy,44.23
2022-12-27T00:59:00,hdy,43.86
2022-12-27T01:00:00,hdy,44.34
2022-12-27T01:01:00,hdy,43.21
2022-12-27T01:02:00,hdy,42.76
2022-12-27T01:03:00,hdy,43.20
2022-12-27T01:04:00,hdy,42.48
2022-12-27T01:05:00,hdy,43.69
2022-12-27T01:06:00,hdy,43.47
2022-12-27T01:07:00,hdy,43.14
2022-12-27T01:08:00,hdy,43.21
2022-12-27T01:09:00,hdy,42.03
2022-12-27T01:10:00,hdy,43.37
2022-12-27T01:11:00,hdy,41.78
2022-12-27T01:12:00,hdy,43.30
2022-12-27T01:13:00,hdy,43.76
2022-12-27T01:14:00,hdy,43.32
2022-12-27T01:15:00,hdy,41.93
2022-12-27T01:16:00,hdy,42.03
2022-12-27T01:17:00,hdy,42.94
2022-12-27T01:18:00,hdy,43.56
2022-12-27T01:19:00,hdy,45.23
2022-12-27T01:20:00,hdy,44.91
2022-12-27T01:21:00,hdy,45.82
2022-12-27T01:22:00,hdy,42.87
2022-12-27T01:23:00,hdy,44.19
2022-12-27T01:24:00,hdy,43.21
2022-12-27T01:25:00,hdy,45.20
2022-12-27T01:26:00,hdy,44.30
2022-12-27T01:27:00,hdy,44.29
2022-12-27T01:28:00,hdy,44.18
2022-12-27T01:29:00,hdy,43.50
2022-12-27T01:30:00,hdy,42.73
2022-12-27T01:31:00,hdy,43.60
2022-12-27T01:32:00,hdy,44.68
2022-12-27T01:33:00,hdy,44.93
2022-12-27T01:34:00,hdy,43.93
2022-12-27T01:35:00,hdy,44.04
2022-12-27T01:36:00,hdy,44.36
2022-12-27T01:37:00,hdy,43.87
2022-12-27T01:38:00,hdy,45.10
2022-12-27T01:39:00,hdy,44.22
2022-12-27T01:40:00,hdy,43.62
2022-12-27T01:41:00,hdy,42.97
2022-12-27T01:42:00,hdy,43.09
2022-12-27T01:43:00,hdy,42.86
2022-12-27T01:44:00,hdy,42.48
2022-12-27T01:45:00,hdy,43.37
2022-12-27T01:46:00,hdy,44.46
2022-12-27T01:47:00,hdy,43.14
2022-12-27T01:48:00,hdy,42.12
2022-12-27T01:49:00,hdy,42.69
2022-12-27T01:50:00,hdy,41.74
2022-12-27T01:51:00,hdy,42.66
2022-12-27T01:52:00,hdy,43.63
2022-12-27T01:53:00,hdy,43.38
2022-12-27T01:54:00,hdy,46.26
2022-12-27T01:55:00,hdy,44.87
2022-12-27T01:56:00,hdy,43.42
2022-12-27T01:57:00,hdy,43.84
2022-12-27T01:58:00,hdy,44.06
2022-12-27T01:59:00,hdy,44.18
2022-12-27T02:00:00,hdy,44.02
2022-12-27T02:01:00,hdy,44.91
2022-12-27T02:02:00,hdy,43.74
2022-12-27T02:03:00,hdy,44.17
2022-12-27T02:04:00,hdy,43.14
2022-12-27T02:05:00,hdy,42.84
2022-12-27T02:06:00,hdy,42.72
2022-12-27T02:07:00,hdy,42.30
2022-12-27T02:08:00,hdy,41.47
2022-12-27T02:09:00,hdy,40.99
2022-12-27T02:10:00,hdy,41.24
2022-12-27T02:11:00,hdy,42.75
2022-12-27T02:12:00,hdy,42.17
2022-12-27T02:13:00,hdy,42.00
2022-12-27T02:14:00,hdy,43.05
2022-12-27T02:15:00,hdy,41.88
2022-12-27T02:16:00,hdy,41.41
2022-12-27T02:17:00,hdy,41.34
2022-12-27T02:18:00,hdy,42.81
2022-12-27T02:19:00,hdy,43.00
2022-12-27T02:20:00,hdy,42.79
2022-12-27T02:21:00,hdy,42.55
2022-12-27T02:22:00,hdy,42.73
2022-12-27T02:23:00,hdy,44.14
2022-12-27T02:24:00,hdy,45.45
2022-12-27T02:25:00,hdy,43.65
2022-12-27T02:26:00,hdy,47.00
2022-12-27T02:27:00,hdy,44.86
2022-12-27T02:28:00,hdy,42.66
2022-12-27T02:29:00,hdy,42.36
2022-12-27T02:30:00,hdy,42.40
2022-12-27T02:31:00,hdy,43.34
2022-12-27T02:32:00,hdy,44.66
2022-12-27T02:33:00,hdy,44.40
2022-12-27T02:34:00,hdy,43.33
2022-12-27T02:35:00,hdy,42.13
2022-12-27T02:36:00,hdy,42.48
2022-12-27T02:37:00,hdy,42.09
2022-12-27T02:38:00,hdy,44.32
2022-12-27T02:39:00,hdy,42.90
2022-12-27T02:40:00,hdy,43.41
2022-12-27T02:41:00,hdy,42.57
2022-12-27T02:42:00,hdy,42.25
2022-12-27T02:43:00,hdy,43.24
2022-12-27T02:44:00,hdy,42.48
2022-12-27T02:45:00,hdy,42.83
2022-12-27T02:46:00,hdy,43.65
2022-12-27T02:47:00,hdy,43.42
2022-12-27T02:48:00,hdy,42.63
2022-12-27T02:49:00,hdy,42.33
2022-12-27T02:50:00,hdy,42.11
2022-12-27T02:51:00,hdy,43.64
2022-12-27T02:52:00,hdy,43.57
2022-12-27T02:53:00,hdy,43.58
2022-12-27T02:54:00,hdy,42.54
2022-12-27T02:55:00,hdy,44.26
2022-12-27T02:56:00,hdy,42.45
2022-12-27T02:57:00,hdy,43.03
2022-12-27T02:58:00,hdy,45.00
2022-12-27T02:59:00,hdy,42.76
2022-12-27T03:00:00,hdy,42.92
2022-12-27T03:01:00,hdy,41.49
2022-12-27T03:02:00,hdy,41.52
2022-12-27T03:03:00,hdy,41.58
2022-12-27T03:04:00,hdy,42.96
2022-12-27T03:05:00,hdy,42.80
2022-12-27T03:06:00,hdy,44.92
2022-12-27T03:07:00,hdy,42.97
2022-12-27T03:08:00,hdy,42.22
2022-12-27T03:09:00,hdy,42.00
2022-12-27T03:10:00,hdy,44.04
2022-12-27T03:11:00,hdy,44.59
2022-12-27T03:12:00,hdy,43.15
2022-12-27T03:13:00,hdy,43.25
2022-12-27T03:14:00,hdy,41.96
2022-12-27T03:15:00,hdy,42.43
2022-12-27T03:16:00,hdy,43.10
2022-12-27T03:17:00,hdy,42.63
2022-12-27T03:18:00,hdy,44.12
2022-12-27T03:19:00,hdy,43.17
2022-12-27T03:20:00,hdy,41.54
2022-12-27T03:21:00,hdy,41.17
2022-12-27T03:22:00,hdy,40.81
2022-12-27T03:23:00,hdy,41.26
2022-12-27T03:24:00,hdy,42.32
2022-12-27T03:25:00,hdy,42.88
2022-12-27T03:26:00,hdy,42.25
2022-12-27T03:27:00,hdy,41.69
2022-12-27T03:28:00,hdy,41.98
2022-12-27T03:29:00,hdy,42.34
2022-12-27T03:30:00,hdy,43.39
2022-12-27T03:31:00,hdy,45.04
2022-12-27T03:32:00,hdy,43.87
2022-12-27T03:33:00,hdy,43.14
2022-12-27T03:34:00,hdy,42.42
2022-12-27T03:35:00,hdy,42.06
2022-12-27T03:36:00,hdy,43.73
2022-12-27T03:37:00,hdy,44.13
2022-12-27T03:38:00,hdy,43.91
2022-12-27T03:39:00,hdy,44.11
2022-12-27T03:40:00,hdy,43.46
2022-12-27T03:41:00,hdy,42.24
2022-12-27T03:42:00,hdy,43.31
2022-12-27T03:43:00,hdy,44.56
2022-12-27T03:44:00,hdy,44.43
2022-12-27T03:45:00,hdy,44.07
2022-12-27T03:46:00,hdy,43.23
2022-12-27T03:47:00,hdy,42.12
2022-12-27T03:48:00,hdy,41.97
2022-12-27T03:49:00,hdy,42.80
2022-12-27T03:50:00,hdy,44.45
2022-12-27T03:51:00,hdy,44.29
2022-12-27T03:52:00,hdy,44.33
2022-12-27T03:53:00,hdy,41.88
2022-12-27T03:54:00,hdy,41.55
2022-12-27T03:55:00,hdy,42.16
2022-12-27T03:56:00,hdy,43.85
2022-12-27T03:57:00,hdy,42.40
2022-12-27T03:58:00,hdy,42.63
2022-12-27T03:59:00,hdy,43.48
2022-12-27T04:00:00,hdy,41.72
2022-12-27T04:01:00,hdy,42.45
2022-12-27T04:02:00,hdy,42.97
2022-12-27T04:03:00,hdy,44.69
2022-12-27T04:04:00,hdy,43.99
2022-12-27T04:05:00,hdy,44.28
2022-12-27T04:06:00,hdy,44.74
2022-12-27T04:07:00,hdy,42.12
2022-12-27T04:08:00,hdy,42.01
2022-12-27T04:09:00,hdy,42.48
2022-12-27T04:10:00,hdy,43.49
2022-12-27T04:11:00,hdy,43.48
2022-12-27T04:12:00,hdy,43.31
2022-12-27T04:13:00,hdy,43.24
2022-12-27T04:14:00,hdy,42.26
2022-12-27T04:15:00,hdy,42.96
2022-12-27T04:16:00,hdy,42.00
2022-12-27T04:17:00,hdy,43.72
2022-12-27T04:18:00,hdy,43.47
2022-12-27T04:19:00,hdy,42.11
2022-12-27T04:20:00,hdy,41.29
2022-12-27T04:21:00,hdy,40.98
2022-12-27T04:22:00,hdy,41.32
2022-12-27T04:23:00,hdy,42.12
2022-12-27T04:24:00,hdy,42.16
2022-12-27T04:25:00,hdy,41.57
2022-12-27T04:26:00,hdy,41.94
2022-12-27T04:27:00,hdy,41.18
2022-12-27T04:28:00,hdy,40.98
2022-12-27T04:29:00,hdy,41.06
2022-12-27T04:30:00,hdy,42.31
2022-12-27T04:31:00,hdy,42.95
2022-12-27T04:32:00,hdy,43.08
2022-12-27T04:33:00,hdy,41.95
2022-12-27T04:34:00,hdy,42.23
2022-12-27T04:35:00,hdy,41.97
2022-12-27T04:36:00,hdy,42.52
2022-12-27T04:37:00,hdy,42.79
2022-12-27T04:38:00,hdy,42.99
2022-12-27T04:39:00,hdy,42.95
2022-12-27T04:40:00,hdy,42.48
2022-12-27T04:41:00,hdy,41.85
2022-12-27T04:42:00,hdy,41.71
2022-12-27T04:43:00,hdy,42.50
2022-12-27T04:44:00,hdy,42.25
2022-12-27T04:45:00,hdy,42.25
2022-12-27T04:46:00,hdy,40.98
2022-12-27T04:47:00,hdy,41.14
2022-12-27T04:48:00,hdy,40.82
2022-12-27T04:49:00,hdy,41.90
2022-12-27T04:50:00,hdy,41.87
2022-12-27T04:51:00,hdy,41.39
2022-12-27T04:52:00,hdy,41.66
2022-12-27T04:53:00,hdy,40.87
2022-12-27T04:54:00,hdy,41.41
2022-12-27T04:55:00,hdy,41.42
2022-12-27T04:56:00,hdy,43.20
2022-12-27T04:57:00,hdy,43.50
2022-12-27T04:58:00,hdy,43.33
2022-12-27T04:59:00,hdy,42.35
2022-12-27T05:00:00,hdy,42.75
2022-12-27T05:01:00,hdy,42.36
2022-12-27T05:02:00,hdy,43.20
2022-12-27T05:03:00,hdy,43.45
2022-12-27T05:04:00,hdy,42.96
2022-12-27T05:05:00,hdy,42.71
2022-12-27T05:06:00,hdy,41.37
2022-12-27T05:07:00,hdy,41.32
2022-12-27T05:08:00,hdy,41.12
2022-12-27T05:09:00,hdy,42.63
2022-12-27T05:10:00,hdy,42.27
2022-12-27T05:11:00,hdy,42.92
2022-12-27T05:12:00,hdy,41.07
2022-12-27T05:13:00,hdy,40.99
2022-12-27T05:14:00,hdy,41.34
2022-12-27T05:15:00,hdy,41.77
2022-12-27T05:16:00,hdy,42.78
2022-12-27T05:17:00,hdy,42.93
2022-12-27T05:18:00,hdy,43.62
2022-12-27T05:19:00,hdy,42.27
2022-12-27T05:20:00,hdy,41.42
2022-12-27T05:21:00,hdy,41.64
2022-12-27T05:22:00,hdy,41.20
2022-12-27T05:23:00,hdy,43.12
2022-12-27T05:24:00,hdy,42.36
2022-12-27T05:25:00,hdy,42.64
2022-12-27T05:26:00,hdy,41.43
2022-12-27T05:27:00,hdy,41.62
2022-12-27T05:28:00,hdy,40.98
2022-12-27T05:29:00,hdy,41.94
2022-12-27T05:30:00,hdy,42.07
2022-12-27T05:31:00,hdy,41.98
2022-12-27T05:32:00,hdy,41.52
2022-12-27T05:33:00,hdy,41.26
2022-12-27T05:34:00,hdy,40.51
2022-12-27T05:35:00,hdy,40.79
2022-12-27T05:36:00,hdy,41.81
2022-12-27T05:37:00,hdy,41.81
2022-12-27T05:38:00,hdy,41.81
2022-12-27T05:39:00,hdy,41.21
2022-12-27T05:40:00,hdy,41.16
2022-12-27T05:41:00,hdy,41.36
2022-12-27T05:42:00,hdy,42.32
2022-12-27T05:43:00,hdy,42.72
2022-12-27T05:44:00,hdy,42.25
2022-12-27T05:45:00,hdy,42.55
2022-12-27T05:46:00,hdy,41.55
2022-12-27T05:47:00,hdy,41.54
2022-12-27T05:48:00,hdy,42.56
2022-12-27T05:49:00,hdy,42.75
2022-12-27T05:50:00,hdy,43.19
2022-12-27T05:51:00,hdy,42.77
2022-12-27T05:52:00,hdy,41.78
2022-12-27T05:53:00,hdy,42.34
2022-12-27T05:54:00,hdy,41.70
2022-12-27T05:55:00,hdy,42.67
2022-12-27T05:56:00,hdy,43.38
2022-12-27T05:57:00,hdy,43.08
2022-12-27T05:58:00,hdy,43.19
2022-12-27T05:59:00,hdy,42.39
2022-12-27T06:00:00,hdy,42.09
2022-12-27T06:01:00,hdy,40.98
2022-12-27T06:02:00,hdy,42.38
2022-12-27T06:03:00,hdy,42.23
2022-12-27T06:04:00,hdy,41.88
2022-12-27T06:05:00,hdy,41.15
2022-12-27T06:06:00,hdy,40.45
2022-12-27T06:07:00,hdy,40.21
2022-12-27T06:08:00,hdy,41.32
2022-12-27T06:09:00,hdy,41.96
2022-12-27T06:10:00,hdy,41.80
2022-12-27T06:11:00,hdy,41.64
2022-12-27T06:12:00,hdy,41.35
2022-12-27T06:13:00,hdy,40.70
2022-12-27T06:14:00,hdy,40.68
2022-12-27T06:15:00,hdy,40.39
2022-12-27T06:16:00,hdy,41.62
2022-12-27T06:17:00,hdy,42.20
2022-12-27T06:18:00,hdy,42.43
2022-12-27T06:19:00,hdy,40.76
2022-12-27T06:20:00,hdy,40.60
2022-12-27T06:21:00,hdy,41.14
2022-12-27T06:22:00,hdy,41.92
2022-12-27T06:23:00,hdy,42.69
2022-12-27T06:24:00,hdy,42.02
2022-12-27T06:25:00,hdy,42.40
2022-12-27T06:26:00,hdy,41.30
2022-12-27T06:27:00,hdy,41.69
2022-12-27T06:28:00,hdy,41.46
2022-12-27T06:29:00,hdy,42.44
2022-12-27T06:30:00,hdy,42.17
2022-12-27T06:31:00,hdy,41.83
2022-12-27T06:32:00,hdy,40.71
2022-12-27T06:33:00,hdy,41.03
2022-12-27T06:34:00,hdy,40.96
2022-12-27T06:35:00,hdy,41.87
2022-12-27T06:36:00,hdy,42.44
2022-12-27T06:37:00,hdy,41.84
2022-12-27T06:38:00,hdy,42.10
2022-12-27T06:39:00,hdy,40.90
2022-12-27T06:40:00,hdy,40.85
2022-12-27T06:41:00,hdy,41.64
2022-12-27T06:42:00,hdy,41.58
2022-12-27T06:43:00,hdy,42.18
2022-12-27T06:44:00,hdy,42.20
2022-12-27T06:45:00,hdy,42.80
2022-12-27T06:46:00,hdy,41.99
2022-12-27T06:47:00,hdy,42.39
2022-12-27T06:48:00,hdy,44.61
2022-12-27T06:49:00,hdy,44.27
2022-12-27T06:50:00,hdy,43.34
2022-12-27T06:51:00,hdy,43.62
2022-12-27T06:52:00,hdy,42.09
2022-12-27T06:53:00,hdy,42.56
2022-12-27T06:54:00,hdy,41.54
2022-12-27T06:55:00,hdy,44.35
2022-12-27T06:56:00,hdy,43.24
2022-12-27T06:57:00,hdy,42.08
2022-12-27T06:58:00,hdy,41.07
2022-12-27T06:59:00,hdy,40.80
2022-12-27T07:00:00,hdy,40.88
2022-12-27T07:01:00,hdy,40.95
2022-12-27T07:02:00,hdy,41.49
2022-12-27T07:03:00,hdy,43.53
2022-12-27T07:04:00,hdy,42.55
2022-12-27T07:05:00,hdy,40.73
2022-12-27T07:06:00,hdy,40.86
2022-12-27T07:07:00,hdy,41.10
2022-12-27T07:08:00,hdy,41.77
2022-12-27T07:09:00,hdy,43.49
2022-12-27T07:10:00,hdy,42.45
2022-12-27T07:11:00,hdy,41.49
2022-12-27T07:12:00,hdy,41.30
2022-12-27T07:13:00,hdy,41.23
2022-12-27T07:14:00,hdy,41.46
2022-12-27T07:15:00,hdy,41.77
2022-12-27T07:16:00,hdy,42.01
2022-12-27T07:17:00,hdy,43.83
2022-12-27T07:18:00,hdy,42.00
2022-12-27T07:19:00,hdy,41.02
2022-12-27T07:20:00,hdy,40.61
2022-12-27T07:21:00,hdy,41.45
2022-12-27T07:22:00,hdy,43.10
2022-12-27T07:23:00,hdy,41.74
2022-12-27T07:24:00,hdy,41.69
2022-12-27T07:25:00,hdy,40.06
2022-12-27T07:26:00,hdy,39.58
2022-12-27T07:27:00,hdy,40.67
2022-12-27T07:28:00,hdy,40.47
2022-12-27T07:29:00,hdy,41.67
2022-12-27T07:30:00,hdy,41.87
2022-12-27T07:31:00,hdy,41.18
2022-12-27T07:32:00,hdy,41.90
2022-12-27T07:33:00,hdy,40.79
2022-12-27T07:34:00,hdy,41.09
2022-12-27T07:35:00,hdy,41.32
2022-12-27T07:36:00,hdy,41.11
2022-12-27T07:37:00,hdy,41.48
2022-12-27T07:38:00,hdy,40.25
2022-12-27T07:39:00,hdy,41.84
2022-12-27T07:40:00,hdy,41.50
2022-12-27T07:41:00,hdy,41.96
2022-12-27T07:42:00,hdy,42.31
2022-12-27T07:43:00,hdy,44.41
2022-12-27T07:44:00,hdy,43.12
2022-12-27T07:45:00,hdy,42.49
2022-12-27T07:46:00,hdy,41.99
2022-12-27T07:47:00,hdy,40.80
2022-12-27T07:48:00,hdy,41.00
2022-12-27T07:49:00,hdy,41.05
2022-12-27T07:50:00,hdy,41.45
2022-12-27T07:51:00,hdy,39.18
2022-12-27T07:52:00,hdy,40.09
2022-12-27T07:53:00,hdy,39.63
2022-12-27T07:54:00,hdy,40.62
2022-12-27T07:55:00,hdy,40.83
2022-12-27T07:56:00,hdy,40.61
2022-12-27T07:57:00,hdy,40.89
2022-12-27T07:58:00,hdy,40.06
2022-12-27T07:59:00,hdy,40.11
2022-12-27T08:00:00,hdy,40.93
2022-12-27T08:01:00,hdy,41.85
2022-12-27T08:02:00,hdy,41.94
2022-12-27T08:03:00,hdy,41.98
2022-12-27T08:04:00,hdy,40.57
2022-12-27T08:05:00,hdy,39.90
2022-12-27T08:06:00,hdy,39.45
2022-12-27T08:07:00,hdy,40.36
2022-12-27T08:08:00,hdy,41.18
2022-12-27T08:09:00,hdy,40.65
2022-12-27T08:10:00,hdy,41.10
2022-12-27T08:11:00,hdy,40.19
2022-12-27T08:12:00,hdy,39.99
2022-12-27T08:13:00,hdy,40.20
2022-12-27T08:14:00,hdy,41.16
2022-12-27T08:15:00,hdy,41.42
2022-12-27T08:16:00,hdy,41.64
2022-12-27T08:17:00,hdy,42.55
2022-12-27T08:18:00,hdy,42.06
2022-12-27T08:19:00,hdy,41.57
2022-12-27T08:20:00,hdy,41.59
2022-12-27T08:21:00,hdy,41.08
2022-12-27T08:22:00,hdy,41.59
2022-12-27T08:23:00,hdy,42.12
2022-12-27T08:24:00,hdy,40.79
2022-12-27T08:25:00,hdy,41.16
2022-12-27T08:26:00,hdy,41.34
2022-12-27T08:27:00,hdy,41.92
2022-12-27T08:28:00,hdy,42.35
2022-12-27T08:29:00,hdy,41.79
2022-12-27T08:30:00,hdy,41.67
2022-12-27T08:31:00,hdy,41.20
2022-12-27T08:32:00,hdy,40.37
2022-12-27T08:33:00,hdy,40.31
2022-12-27T08:34:00,hdy,41.20
2022-12-27T08:35:00,hdy,42.17
2022-12-27T08:36:00,hdy,40.57
2022-12-27T08:37:00,hdy,39.46
2022-12-27T08:38:00,hdy,40.97
2022-12-27T08:39:00,hdy,41.72
2022-12-27T08:40:00,hdy,41.02
2022-12-27T08:41:00,hdy,41.37
2022-12-27T08:42:00,hdy,42.73
2022-12-27T08:43:00,hdy,41.41
2022-12-27T08:44:00,hdy,42.11
2022-12-27T08:45:00,hdy,42.10
2022-12-27T08:46:00,hdy,42.66
2022-12-27T08:47:00,hdy,40.52
2022-12-27T08:48:00,hdy,40.62
2022-12-27T08:49:00,hdy,40.02
2022-12-27T08:50:00,hdy,39.20
2022-12-27T08:51:00,hdy,39.52
2022-12-27T08:52:00,hdy,40.06
2022-12-27T08:53:00,hdy,40.85
2022-12-27T08:54:00,hdy,41.20
2022-12-27T08:55:00,hdy,41.28
2022-12-27T08:56:00,hdy,42.05
2022-12-27T08:57:00,hdy,41.66
2022-12-27T08:58:00,hdy,41.32
2022-12-27T08:59:00,hdy,40.05
2022-12-27T09:00:00,hdy,42.71
2022-12-27T09:01:00,hdy,41.72
2022-12-27T09:02:00,hdy,40.99
2022-12-27T09:03:00,hdy,41.10
2022-12-27T09:04:00,hdy,39.55
2022-12-27T09:05:00,hdy,39.45
2022-12-27T09:06:00,hdy,39.83
2022-12-27T09:07:00,hdy,40.67
2022-12-27T09:08:00,hdy,42.71
2022-12-27T09:09:00,hdy,42.54
2022-12-27T09:10:00,hdy,40.86
2022-12-27T09:11:00,hdy,40.30
2022-12-27T09:12:00,hdy,40.28
2022-12-27T09:13:00,hdy,42.42
2022-12-27T09:14:00,hdy,41.31
2022-12-27T09:15:00,hdy,41.35
2022-12-27T09:16:00,hdy,41.91
2022-12-27T09:17:00,hdy,41.81
2022-12-27T09:18:00,hdy,41.86
2022-12-27T09:19:00,hdy,40.72
2022-12-27T09:20:00,hdy,42.27
2022-12-27T09:21:00,hdy,42.82
2022-12-27T09:22:00,hdy,42.15
2022-12-27T09:23:00,hdy,41.56
2022-12-27T09:24:00,hdy,41.25
2022-12-27T09:25:00,hdy,41.20
2022-12-27T09:26:00,hdy,42.11
2022-12-27T09:27:00,hdy,42.81
2022-12-27T09:28:00,hdy,43.11
2022-12-27T09:29:00,hdy,42.43
2022-12-27T09:30:00,hdy,41.42
2022-12-27T09:31:00,hdy,41.71
2022-12-27T09:32:00,hdy,41.22
2022-12-27T09:33:00,hdy,43.68
2022-12-27T09:34:00,hdy,42.13
2022-12-27T09:35:00,hdy,43.73
2022-12-27T09:36:00,hdy,41.03
2022-12-27T09:37:00,hdy,41.03
2022-12-27T09:38:00,hdy,40.80
2022-12-27T09:39:00,hdy,43.20
2022-12-27T09:40:00,hdy,42.17
2022-12-27T09:41:00,hdy,43.21
2022-12-27T09:42:00,hdy,44.28
2022-12-27T09:43:00,hdy,42.59
2022-12-27T09:44:00,hdy,42.58
2022-12-27T09:45:00,hdy,41.02
2022-12-27T09:46:00,hdy,41.94
2022-12-27T09:47:00,hdy,42.53
2022-12-27T09:48:00,hdy,42.98
2022-12-27T09:49:00,hdy,41.47
2022-12-27T09:50:00,hdy,40.53
2022-12-27T09:51:00,hdy,42.17
2022-12-27T09:52:00,hdy,43.09
2022-12-27T09:53:00,hdy,41.34
2022-12-27T09:54:00,hdy,41.47
2022-12-27T09:55:00,hdy,41.21
2022-12-27T09:56:00,hdy,41.28
2022-12-27T09:57:00,hdy,40.71
2022-12-27T09:58:00,hdy,40.55
2022-12-27T09:59:00,hdy,42.77
2022-12-27T10:00:00,hdy,42.52
2022-12-27T10:01:00,hdy,42.78
2022-12-27T10:02:00,hdy,41.03
2022-12-27T10:03:00,hdy,41.22
2022-12-27T10:04:00,hdy,41.00
2022-12-27T10:05:00,hdy,41.60
2022-12-27T10:06:00,hdy,41.65
2022-12-27T10:07:00,hdy,42.22
2022-12-27T10:08:00,hdy,42.59
2022-12-27T10:09:00,hdy,40.69
2022-12-27T10:10:00,hdy,40.74
2022-12-27T10:11:00,hdy,40.52
2022-12-27T10:12:00,hdy,41.68
2022-12-27T10:13:00,hdy,41.97
2022-12-27T10:14:00,hdy,41.64
2022-12-27T10:15:00,hdy,41.59
2022-12-27T10:16:00,hdy,42.70
2022-12-27T10:17:00,hdy,41.57
2022-12-27T10:18:00,hdy,43.19
2022-12-27T10:19:00,hdy,43.39
2022-12-27T10:20:00,hdy,45.00
2022-12-27T10:21:00,hdy,43.59
2022-12-27T10:22:00,hdy,43.43
2022-12-27T10:23:00,hdy,42.43
2022-12-27T10:24:00,hdy,41.39
2022-12-27T10:25:00,hdy,44.16
2022-12-27T10:26:00,hdy,41.90
2022-12-27T10:27:00,hdy,42.00
2022-12-27T10:28:00,hdy,41.49
2022-12-27T10:29:00,hdy,41.00
2022-12-27T10:30:00,hdy,42.65
2022-12-27T10:31:00,hdy,42.74
2022-12-27T10:32:00,hdy,42.74
2022-12-27T10:33:00,hdy,41.86
2022-12-27T10:34:00,hdy,42.09
2022-12-27T10:35:00,hdy,40.67
2022-12-27T10:36:00,hdy,40.51
2022-12-27T10:37:00,hdy,40.38
2022-12-27T10:38:00,hdy,41.54
2022-12-27T10:39:00,hdy,41.40
2022-12-27T10:40:00,hdy,41.96
2022-12-27T10:41:00,hdy,41.92
2022-12-27T10:42:00,hdy,40.63
2022-12-27T10:43:00,hdy,42.88
2022-12-27T10:44:00,hdy,41.44
2022-12-27T10:45:00,hdy,41.99
2022-12-27T10:46:00,hdy,42.43
2022-12-27T10:47:00,hdy,43.10
2022-12-27T10:48:00,hdy,42.20
2022-12-27T10:49:00,hdy,41.30
2022-12-27T10:50:00,hdy,40.90
2022-12-27T10:51:00,hdy,41.02
2022-12-27T10:52:00,hdy,41.20
2022-12-27T10:53:00,hdy,42.36
2022-12-27T10:54:00,hdy,42.72
2022-12-27T10:55:00,hdy,41.57
2022-12-27T10:56:00,hdy,42.22
2022-12-27T10:57:00,hdy,41.77
2022-12-27T10:58:00,hdy,42.59
2022-12-27T10:59:00,hdy,41.53
2022-12-27T11:00:00,hdy,43.29
2022-12-27T11:01:00,hdy,42.61
2022-12-27T11:02:00,hdy,41.56
2022-12-27T11:03:00,hdy,41.64
2022-12-27T11:04:00,hdy,43.47
2022-12-27T11:05:00,hdy,44.70
2022-12-27T11:06:00,hdy,44.15
2022-12-27T11:07:00,hdy,42.89
2022-12-27T11:08:00,hdy,42.44
2022-12-27T11:09:00,hdy,43.07
2022-12-27T11:10:00,hdy,41.69
2022-12-27T11:11:00,hdy,44.49
2022-12-27T11:12:00,hdy,44.71
2022-12-27T11:13:00,hdy,44.38
2022-12-27T11:14:00,hdy,44.26
2022-12-27T11:15:00,hdy,42.18
2022-12-27T11:16:00,hdy,42.62
2022-12-27T11:17:00,hdy,43.01
2022-12-27T11:18:00,hdy,43.66
2022-12-27T11:19:00,hdy,42.81
2022-12-27T11:20:00,hdy,43.37
2022-12-27T11:21:00,hdy,41.26
2022-12-27T11:22:00,hdy,42.16
2022-12-27T11:23:00,hdy,40.72
2022-12-27T11:24:00,hdy,41.57
2022-12-27T11:25:00,hdy,41.23
2022-12-27T11:26:00,hdy,41.75
2022-12-27T11:27:00,hdy,43.22
2022-12-27T11:28:00,hdy,40.67
2022-12-27T11:29:00,hdy,40.31
2022-12-27T11:30:00,hdy,40.76
2022-12-27T11:31:00,hdy,42.55
2022-12-27T11:32:00,hdy,42.13
2022-12-27T11:33:00,hdy,43.43
2022-12-27T11:34:00,hdy,40.75
2022-12-27T11:35:00,hdy,42.74
2022-12-27T11:36:00,hdy,42.82
2022-12-27T11:37:00,hdy,43.46
2022-12-27T11:38:00,hdy,42.01
2022-12-27T11:39:00,hdy,42.20
2022-12-27T11:40:00,hdy,41.94
2022-12-27T11:41:00,hdy,41.49
2022-12-27T11:42:00,hdy,40.44
2022-12-27T11:43:00,hdy,40.79
2022-12-27T11:44:00,hdy,40.93
2022-12-27T11:45:00,hdy,42.14
2022-12-27T11:46:00,hdy,42.25
2022-12-27T11:47:00,hdy,42.44
2022-12-27T11:48:00,hdy,40.87
2022-12-27T11:49:00,hdy,41.93
2022-12-27T11:50:00,hdy,40.88
2022-12-27T11:51:00,hdy,42.11
2022-12-27T11:52:00,hdy,43.54
2022-12-27T11:53:00,hdy,42.61
2022-12-27T11:54:00,hdy,43.41
2022-12-27T11:55:00,hdy,43.56
2022-12-27T11:56:00,hdy,42.03
2022-12-27T11:57:00,hdy,42.31
2022-12-27T11:58:00,hdy,43.41
2022-12-27T11:59:00,hdy,44.21
2022-12-27T12:00:00,hdy,43.30
2022-12-27T12:01:00,hdy,42.20
2022-12-27T12:02:00,hdy,42.25
2022-12-27T12:03:00,hdy,42.05
2022-12-27T12:04:00,hdy,42.44
2022-12-27T12:05:00,hdy,44.75
2022-12-27T12:06:00,hdy,43.02
2022-12-27T12:07:00,hdy,43.74
2022-12-27T12:08:00,hdy,42.07
2022-12-27T12:09:00,hdy,42.32
2022-12-27T12:10:00,hdy,41.90
2022-12-27T12:11:00,hdy,41.75
2022-12-27T12:12:00,hdy,42.10
2022-12-27T12:13:00,hdy,43.06
2022-12-27T12:14:00,hdy,42.66
2022-12-27T12:15:00,hdy,41.50
2022-12-27T12:16:00,hdy,41.49
2022-12-27T12:17:00,hdy,44.44
2022-12-27T12:18:00,hdy,45.42
2022-12-27T12:19:00,hdy,43.06
2022-12-27T12:20:00,hdy,43.29
2022-12-27T12:21:00,hdy,42.67
2022-12-27T12:22:00,hdy,43.77
2022-12-27T12:23:00,hdy,43.29
2022-12-27T12:24:00,hdy,41.60
2022-12-27T12:25:00,hdy,43.64
2022-12-27T12:26:00,hdy,42.02
2022-12-27T12:27:00,hdy,41.21
2022-12-27T12:28:00,hdy,42.10
2022-12-27T12:29:00,hdy,43.33
2022-12-27T12:30:00,hdy,41.69
2022-12-27T12:31:00,hdy,43.26
2022-12-27T12:32:00,hdy,42.89
2022-12-27T12:33:00,hdy,42.98
2022-12-27T12:34:00,hdy,42.49
2022-12-27T12:35:00,hdy,42.74
2022-12-27T12:36:00,hdy,43.31
2022-12-27T12:37:00,hdy,42.58
2022-12-27T12:38:00,hdy,42.42
2022-12-27T12:39:00,hdy,42.78
2022-12-27T12:40:00,hdy,43.41
2022-12-27T12:41:00,hdy,43.24
2022-12-27T12:42:00,hdy,43.68
2022-12-27T12:43:00,hdy,42.05
2022-12-27T12:44:00,hdy,42.99
2022-12-27T12:45:00,hdy,42.58
2022-12-27T12:46:00,hdy,42.89
2022-12-27T12:47:00,hdy,41.13
2022-12-27T12:48:00,hdy,43.49
2022-12-27T12:49:00,hdy,41.74
2022-12-27T12:50:00,hdy,42.47
2022-12-27T12:51:00,hdy,44.37
2022-12-27T12:52:00,hdy,44.18
2022-12-27T12:53:00,hdy,43.85
2022-12-27T12:54:00,hdy,41.02
2022-12-27T12:55:00,hdy,40.67
2022-12-27T12:56:00,hdy,42.94
2022-12-27T12:57:00,hdy,43.73
2022-12-27T12:58:00,hdy,42.81
2022-12-27T12:59:00,hdy,44.15
2022-12-27T13:00:00,hdy,43.08
2022-12-27T13:01:00,hdy,43.35
2022-12-27T13:02:00,hdy,42.92
2022-12-27T13:03:00,hdy,44.08
2022-12-27T13:04:00,hdy,44.27
2022-12-27T13:05:00,hdy,43.38
2022-12-27T13:06:00,hdy,41.94
2022-12-27T13:07:00,hdy,42.88
2022-12-27T13:08:00,hdy,42.57
2022-12-27T13:09:00,hdy,42.32
2022-12-27T13:10:00,hdy,43.38
2022-12-27T13:11:00,hdy,43.49
2022-12-27T13:12:00,hdy,42.93
2022-12-27T13:13:00,hdy,43.57
2022-12-27T13:14:00,hdy,42.98
2022-12-27T13:15:00,hdy,40.66
2022-12-27T13:16:00,hdy,42.56
2022-12-27T13:17:00,hdy,43.25
2022-12-27T13:18:00,hdy,43.52